TimeIST,TemperatureF,Dew PointF,Humidity,Sea Level PressureIn,VisibilityMPH,Wind Direction,Wind SpeedMPH,Gust SpeedMPH,PrecipitationIn,Events,Conditions,WindDirDegrees,DateUTC
12:00 AM,57.2,50.0,77,29.92,6.2,SSW,10.4,-,N/A,,Overcast,200,2012-09-15 23:00:00
12:30 AM,55.4,50.0,82,29.89,6.2,South,9.2,-,N/A,,Overcast,190,2012-09-15 23:30:00
1:00 AM,55,50,78,29.90,12,South,11.2,,,,Partly Cloudy,180,2012-09-16 00:00:00
1:00 AM,55.4,50.0,82,29.89,6.2,South,10.4,-,N/A,,Mostly Cloudy,180,2012-09-16 00:00:00
1:30 AM,55.4,50.0,82,29.89,6.2,South,6.9,-,N/A,,Mostly Cloudy,180,2012-09-16 00:30:00
2:00 AM,53.6,50.0,88,29.89,6.2,South,9.2,-,N/A,,Overcast,170,2012-09-16 01:00:00
2:30 AM,55.4,51.8,88,29.86,6.2,South,8.1,-,N/A,,Overcast,170,2012-09-16 01:30:00
3:00 AM,55.4,51.8,88,29.86,6.2,South,8.1,-,N/A,,Overcast,180,2012-09-16 02:00:00
3:30 AM,55.4,51.8,88,29.86,6.2,South,6.9,-,N/A,,Overcast,180,2012-09-16 02:30:00
4:00 AM,57.2,55.4,94,29.83,-9999.0,SSW,11.5,-,N/A,Rain,Light Rain,200,2012-09-16 03:00:00
4:30 AM,57.2,55.4,94,29.83,3.7,SSW,11.5,-,N/A,,Light Drizzle,210,2012-09-16 03:30:00
5:30 AM,57.2,57.2,100,29.80,3.7,SSW,12.7,-,N/A,Rain,Light Rain,210,2012-09-16 04:30:00
6:00 AM,57.2,57.2,100,29.80,3.1,SSW,12.7,-,N/A,Rain,Light Rain,210,2012-09-16 05:00:00
6:30 AM,57.2,57.2,100,29.77,2.5,SSW,12.7,-,N/A,Rain,Light Rain,210,2012-09-16 05:30:00
7:00 AM,58,58,100,29.78,2,SSW,13.4,,,Rain,Heavy Rain,200,2012-09-16 06:00:00
7:00 AM,59.0,59.0,100,29.77,2.5,SSW,12.7,-,N/A,Rain,Rain,200,2012-09-16 06:00:00
7:30 AM,59.0,59.0,100,29.77,1.6,SSW,16.1,-,N/A,Rain,Rain,200,2012-09-16 06:30:00
8:00 AM,59.0,59.0,100,29.77,1.6,SSW,12.7,-,N/A,Rain,Rain,200,2012-09-16 07:00:00
8:30 AM,60.8,60.8,100,29.77,1.6,SW,17.3,-,N/A,Rain,Rain,230,2012-09-16 07:30:00
9:00 AM,60.8,60.8,100,29.77,0.9,SW,18.4,-,N/A,Rain,Rain,230,2012-09-16 08:00:00
9:30 AM,60.8,60.8,100,29.77,1.6,SW,18.4,-,N/A,Rain,Rain,230,2012-09-16 08:30:00
10:00 AM,59.0,59.0,100,29.77,1.9,West,17.3,-,N/A,Rain,Rain,280,2012-09-16 09:00:00
10:30 AM,57.2,57.2,100,29.80,2.8,West,10.4,-,N/A,Rain,Light Rain,270,2012-09-16 09:30:00
11:00 AM,57.2,57.2,100,29.80,6.2,WSW,9.2,-,N/A,,Mostly Cloudy,240,2012-09-16 10:00:00
11:30 AM,59.0,57.2,94,29.80,6.2,WSW,11.5,-,N/A,,Mostly Cloudy,240,2012-09-16 10:30:00
12:00 PM,59.0,57.2,94,29.80,6.2,WSW,10.4,-,N/A,,Mostly Cloudy,250,2012-09-16 11:00:00
12:30 PM,57.2,53.6,88,29.80,6.2,WNW,19.6,-,N/A,,Mostly Cloudy,290,2012-09-16 11:30:00
1:00 PM,56,52,82,29.82,16,West,6.7,,,Rain,Light Rain,270,2012-09-16 12:00:00
1:00 PM,57.2,51.8,82,29.80,6.2,West,6.9,-,N/A,,Mostly Cloudy,270,2012-09-16 12:00:00
1:30 PM,57.2,53.6,88,29.80,6.2,WSW,11.5,-,N/A,,Mostly Cloudy,240,2012-09-16 12:30:00
2:00 PM,59.0,51.8,77,29.80,6.2,West,17.3,-,N/A,,Mostly Cloudy,270,2012-09-16 13:00:00
2:30 PM,60.8,51.8,72,29.80,6.2,West,17.3,-,N/A,,Mostly Cloudy,280,2012-09-16 13:30:00
3:00 PM,59.0,50.0,72,29.80,6.2,West,17.3,-,N/A,,Mostly Cloudy,270,2012-09-16 14:00:00
3:30 PM,60.8,50.0,68,29.80,6.2,West,19.6,-,N/A,,Overcast,270,2012-09-16 14:30:00
4:00 PM,59.0,48.2,67,29.83,6.2,West,17.3,-,N/A,,Mostly Cloudy,280,2012-09-16 15:00:00
4:30 PM,60.8,50.0,68,29.83,6.2,WNW,20.7,-,N/A,,Mostly Cloudy,290,2012-09-16 15:30:00
5:00 PM,59.0,48.2,67,29.83,6.2,WNW,16.1,-,N/A,,Mostly Cloudy,290,2012-09-16 16:00:00
5:30 PM,59.0,48.2,67,29.83,6.2,West,16.1,-,N/A,,Mostly Cloudy,270,2012-09-16 16:30:00
6:00 PM,59.0,48.2,67,29.83,6.2,West,15.0,-,N/A,,Scattered Clouds,260,2012-09-16 17:00:00
6:30 PM,57.2,48.2,72,29.83,6.2,West,16.1,-,N/A,,Scattered Clouds,270,2012-09-16 17:30:00
7:00 PM,56,50,73,29.85,25,West,15.7,,,Rain,Light Rain Showers,270,2012-09-16 18:00:00
7:00 PM,57.2,50.0,77,29.83,6.2,West,15.0,-,N/A,,Scattered Clouds,270,2012-09-16 18:00:00
7:30 PM,55.4,48.2,77,29.83,6.2,West,9.2,-,N/A,,Scattered Clouds,270,2012-09-16 18:30:00
8:00 PM,55.4,48.2,77,29.86,6.2,West,11.5,-,N/A,,Partly Cloudy,260,2012-09-16 19:00:00
8:30 PM,53.6,48.2,82,29.86,6.2,WSW,9.2,-,N/A,,Partly Cloudy,250,2012-09-16 19:30:00
9:00 PM,53.6,48.2,82,29.86,6.2,West,11.5,-,N/A,,Partly Cloudy,260,2012-09-16 20:00:00
9:30 PM,53.6,48.2,82,29.86,6.2,WSW,10.4,-,N/A,,Partly Cloudy,250,2012-09-16 20:30:00
10:00 PM,53.6,48.2,82,29.86,6.2,WSW,10.4,-,N/A,,Partly Cloudy,250,2012-09-16 21:00:00
10:30 PM,53.6,48.2,82,29.86,6.2,WSW,11.5,-,N/A,,Scattered Clouds,240,2012-09-16 21:30:00
11:00 PM,53.6,48.2,82,29.86,-9999.0,SW,10.4,-,N/A,,Clear,230,2012-09-16 22:00:00
11:30 PM,51.8,48.2,88,29.86,6.2,SW,10.4,-,N/A,,Partly Cloudy,220,2012-09-16 22:30:00